Miscellaneous Local Product
Issued by NWS North Platte, NE

Home | Current Version | Previous Version | Text Only | Print | Product List | Glossary On
Versions: 1 2 3 4 5 6 7 8 9 10 11 12 13 14 15 16 17 18 19 20 21 22 23 24 25 26 27 28 29 30 31 32 33 34 35 36 37 38 39 40 41 42 43 44 45 46 47 48 49 50
000
AXUS43 KLBF 011510
MISLBF


WESTERN AND NORTH CENTRAL NEBRASKA HOURLY WEATHER ROUNDUP
NATIONAL WEATHER SERVICE NORTH PLATTE NE
1000 AM CDT SAT AUG 01 2015

***STATIONS NOT REPORTING VARIABLES SUCH AS SKY/WEATHER OR
PRESSURE ARE PROVIDED BY THE NEBRASKA DEPARTMENT OF
ROADS...RAWS...AND APRS NETWORKS...AND ARE NOT UNDER
NATIONAL WEATHER SERVICE QUALITY CONTROL***

...OBSERVATIONS IN AND NEAR THE EASTERN PANHANDLE OF NEBRASKA...

CITY           SKY/WX    TMP DP  RH WIND       PRES   REMARKS
PINE RIDGE     SUNNY     75  58  55 SE13G21   30.06F
CHADRON        SUNNY     78  54  43 E3        30.04F
ALLIANCE       SUNNY     79  63  57 VRB7      30.08S
SIDNEY         SUNNY     80  61  52 SW16      30.13S
BIG SPRINGS      N/A     75  66  73 CALM        N/A
$$

...OBSERVATIONS IN NORTH CENTRAL NEBRASKA...

CITY           SKY/WX    TMP DP  RH WIND       PRES   REMARKS
VALENTINE      RAIN      63  61  93 N13       30.18R
THEDFORD       SUNNY     75  57  54 SE22G31   30.13S
AINSWORTH      TSTM      68  57  67 NE12      30.16R
O`NEILL        CLOUDY    71  59  66 SW10      30.08F
ORD            CLOUDY    66  60  81 E8        30.12F
BROKEN BOW     SUNNY     73  60  63 SE10G22   30.14F
SPRINGVIEW       N/A     63  60  91 NW3         N/A
CHAMBERS         N/A     68  59  74 S6G14       N/A
EWING            N/A     69  63  81 SW3         N/A
$$

...OBSERVATIONS IN SOUTHWEST NEBRASKA AND FAR NORTHEAST COLORADO...

CITY           SKY/WX    TMP DP  RH WIND       PRES   REMARKS
WRAY           FAIR      82  64  54 S9        30.12F
IMPERIAL       SUNNY     77  62  59 SW8       30.10F
OGALLALA       SUNNY     74  64  72 S5        30.09F
NORTH PLATTE   SUNNY     72  62  71 SE21G29   30.14R
MCCOOK         SUNNY     77  60  55 E21G28    30.13R
LEXINGTON      SUNNY     74  58  57 E15G24    30.13F
PAXTON           N/A     76  66  71 E5          N/A
BRADY            N/A     71  61  70 N9G17       N/A
CALLAWAY         N/A     71  63  75 SE18        N/A
$$

...NORTH PLATTE AREA...

CITY           SKY/WX    TMP DP  RH WIND       PRES   REMARKS
AIRPORT        SUNNY     72  62  71 SE21G29   30.14R
DOWNTOWN         N/A     72  63  72 E7G17       N/A
SANDRIDGE        N/A     72  62  72 E7G16       N/A
HILLCREST        N/A     71  62  73 E21G31      N/A
$$

...SOME WEATHER OBSERVATIONS FROM AROUND THE REGION...

CITY           SKY/WX    TMP DP  RH WIND       PRES   REMARKS
DENVER         MOSUNNY   75  50  41 W9        30.19S
LARAMIE        SUNNY     68  48  48 S7        30.32R
CHEYENNE       SUNNY     76  53  44 S9        30.23S
SCOTTSBLUFF    SUNNY     78  58  49 W5        30.09F
RAPID CITY     SUNNY     79  59  50 SW9       30.03R
PIERRE         SUNNY     80  61  52 S8        29.92S
WINNER         FAIR      75  54  47 SW16      29.98S
SIOUX FALLS    PTSUNNY   76  67  73 SW6       30.01F
OMAHA          CLOUDY    73  63  70 SW10      30.05F
GRAND ISLAND   PTSUNNY   67  59  75 E12G23    30.11F
KANSAS CITY    MOSUNNY   81  73  76 W7        30.07S
WICHITA        MOSUNNY   81  72  74 S7        30.09R
HAYS           SUNNY     81  66  61 SW8       30.09F
LIBERAL        SUNNY     81  68  65 W9        30.13S
GOODLAND       SUNNY     78  62  57 SW12      30.14S
$$



USA.gov is the U.S. government's official web portal to all federal, state and local government web resources and services.